OK1HOL-13 Weather Reports


time (UTC)temp
C
wind
direction
speed
KPH
gust
KPH
rain 1hr
cm
rain 24hr
cm
rain mn
cm
humidity
%
barometer
mb
20260505005558 16 0.0 0.0 0.00 0.00 0.00 71 1009.4
20260505004558 16 0.0 0.0 0.00 0.00 0.00 69 1009.5
20260505003558 17 0.0 0.0 0.00 0.00 0.00 67 1009.5
20260505002558 17 0.0 0.0 0.00 0.00 0.00 63 1009.5
20260505001558 17 0.0 0.0 0.00 0.00 0.00 66 1009.8
20260505000558 17 0.0 0.0 0.00 0.00 0.00 64 1010.0
20260504235558 17 0.0 0.0 0.00 0.00 0.00 64 1010.2
20260504234558 17 0.0 0.0 0.00 0.00 0.00 65 1009.9
20260504233558 17 0.0 0.0 0.00 0.00 0.00 68 1010.1
20260504232558 16 0.0 0.0 0.00 0.00 0.00 66 1010.3
20260504231558 16 0.0 0.0 0.00 0.00 0.00 65 1010.8
20260504230558 17 0.0 0.0 0.00 0.00 0.00 62 1010.6
20260504225558 17 0.0 0.0 0.00 0.00 0.00 63 1011.1
20260504224558 17 0.0 0.0 0.00 0.00 0.00 65 1011.8
20260504223558 17 0.0 0.0 0.00 0.00 0.00 61 1012.1
20260504222558 18 0.0 0.0 0.00 0.00 0.00 48 1012.2
20260504221558 18 0.0 0.0 0.00 0.00 0.00 50 1011.6
20260504220558 18 0.0 0.0 0.00 0.00 0.00 51 1011.1
20260504215558 18 0.0 0.0 0.00 0.00 0.00 53 1010.9
20260504214558 18 0.0 0.0 0.00 0.00 0.00 52 1010.9
20260504213558 18 0.0 0.0 0.00 0.00 0.00 52 1010.9
20260504212558 18 0.0 0.0 0.00 0.00 0.00 55 1010.9
20260504211558 19 0.0 0.0 0.00 0.00 0.00 53 1010.9
20260504210558 18 0.0 0.0 0.00 0.00 0.00 51 1011.0
20260504205558 19 0.0 0.0 0.00 0.00 0.00 51 1011.0
20260504204558 20 0.0 0.0 0.00 0.00 0.00 44 1011.1
20260504203558 20 0.0 0.0 0.00 0.00 0.00 44 1011.0
20260504202558 20 0.0 0.0 0.00 0.00 0.00 44 1011.1
20260504201558 20 0.0 0.0 0.00 0.00 0.00 43 1011.1
20260504200558 20 0.0 0.0 0.00 0.00 0.00 42 1011.2
20260504195558 20 0.0 0.0 0.00 0.00 0.00 41 1011.1
20260504194558 21 0.0 0.0 0.00 0.00 0.00 40 1011.1
20260504193558 21 0.0 0.0 0.00 0.00 0.00 39 1011.0
20260504191558 21 0.0 0.0 0.00 0.00 0.00 37 1011.0
20260504190558 22 0.0 0.0 0.00 0.00 0.00 36 1010.8
20260504185558 22 0.0 0.0 0.00 0.00 0.00 35 1010.7
20260504184558 22 0.0 0.0 0.00 0.00 0.00 34 1010.7
20260504183558 22 0.0 0.0 0.00 0.00 0.00 33 1010.6
20260504182558 22 0.0 0.0 0.00 0.00 0.00 32 1010.6
20260504181558 22 0.0 0.0 0.00 0.00 0.00 32 1010.6
20260504180558 23 0.0 0.0 0.00 0.00 0.00 31 1010.6
20260504175558 23 0.0 0.0 0.00 0.00 0.00 31 1010.6
20260504174558 23 0.0 0.0 0.00 0.00 0.00 31 1010.6
20260504173558 23 0.0 0.0 0.00 0.00 0.00 31 1010.6
20260504172558 23 0.0 0.0 0.00 0.00 0.00 31 1010.6
20260504171558 23 0.0 0.0 0.00 0.00 0.00 31 1010.6
20260504170558 23 0.0 0.0 0.00 0.00 0.00 31 1010.7
20260504150558 27 0.0 0.0 0.00 0.00 0.00 25 1011.3
20260504140558 26 0.0 0.0 0.00 0.00 0.00 26 1011.9
20260504130557 26 0.0 0.0 0.00 0.00 0.00 27 1012.2
20260504110557 24 0.0 0.0 0.00 0.00 0.00 28 1013.4
20260504100557 22 0.0 0.0 0.00 0.00 0.00 34 1014.1
20260504081557 22 0.0 0.0 0.00 0.00 0.00 34 1014.0
20260504080556 22 0.0 0.0 0.00 0.00 0.00 35 1014.0
20260504050556 13 0.0 0.0 0.00 0.00 0.00 56 1013.2
20260504045557 13 0.0 0.0 0.00 0.00 0.00 55 1013.0
20260504044557 13 0.0 0.0 0.00 0.00 0.00 56 1012.9
20260504043557 13 0.0 0.0 0.00 0.00 0.00 58 1013.1
20260504042557 13 0.0 0.0 0.00 0.00 0.00 55 1013.1
20260504041556 13 0.0 0.0 0.00 0.00 0.00 55 1013.4
20260504040557 13 0.0 0.0 0.00 0.00 0.00 55 1013.4
20260504035557 13 0.0 0.0 0.00 0.00 0.00 54 1013.3
20260504034556 13 0.0 0.0 0.00 0.00 0.00 55 1013.4
20260504033557 13 0.0 0.0 0.00 0.00 0.00 54 1013.2
20260504032557 13 0.0 0.0 0.00 0.00 0.00 52 1013.1
20260504031556 13 0.0 0.0 0.00 0.00 0.00 51 1013.0
20260504030557 13 0.0 0.0 0.00 0.00 0.00 52 1013.0
20260504025557 13 0.0 0.0 0.00 0.00 0.00 51 1013.1
20260504024557 14 0.0 0.0 0.00 0.00 0.00 50 1013.1
20260504023557 14 0.0 0.0 0.00 0.00 0.00 50 1013.1
20260504022557 14 0.0 0.0 0.00 0.00 0.00 49 1013.0
20260504021556 14 0.0 0.0 0.00 0.00 0.00 49 1013.0
20260504020557 15 0.0 0.0 0.00 0.00 0.00 48 1012.9
20260504015557 15 0.0 0.0 0.00 0.00 0.00 48 1012.8
20260504013557 15 0.0 0.0 0.00 0.00 0.00 48 1012.7
20260504012557 15 0.0 0.0 0.00 0.00 0.00 47 1012.8
20260504011600 15 0.0 0.0 0.00 0.00 0.00 46 1012.8
20260504010555 16 0.0 0.0 0.00 0.00 0.00 44 1012.8